KC5LIO Weather Reports


time (UTC)temp
F
wind
direction
speed
knots
gust
knots
rain 1hr
in
rain 24hr
in
rain mn
in
humidity
%
barometer
mb
20260510213204 83 166 2.6 6.1 0.00 0.06 0.01 75 1014.3
20260510211704 83 303 2.6 6.1 0.00 0.06 0.01 74 1014.4
20260510210204 83 351 3.5 6.1 0.00 0.06 0.01 73 1014.4
20260510204705 84 199 1.7 5.2 0.00 0.06 0.01 75 1014.4
20260510203205 83 225 2.6 5.2 0.00 0.06 0.01 74 1014.5
20260510201704 83 293 2.6 4.3 0.00 0.06 0.01 74 1014.7
20260510200204 82 218 2.6 7.0 0.00 0.06 0.01 77 1014.6
20260510194704 82 158 2.6 7.0 0.00 0.06 0.01 77 1014.6
20260510193204 83 246 1.7 5.2 0.00 0.06 0.01 75 1014.4
20260510191704 83 151 1.7 4.3 0.00 0.06 0.01 72 1014.6
20260510190204 84 155 3.5 5.2 0.00 0.06 0.01 71 1014.6
20260510183205 85 313 2.6 4.3 0.00 0.06 0.01 69 1015.2
20260510181705 84 167 2.6 5.2 0.00 0.06 0.01 73 1015.5
20260510180205 83 123 1.7 4.3 0.00 0.06 0.01 71 1015.6
20260510174704 81 103 2.6 4.3 0.00 0.06 0.01 74 1015.8
20260510173205 80 270 2.6 4.3 0.00 0.06 0.01 74 1015.9
20260510171704 80 58 1.7 4.3 0.00 0.06 0.01 74 1015.9
20260510170204 81 45 2.6 5.2 0.00 0.06 0.01 71 1016.0
20260510164704 80 303 1.7 5.2 0.00 0.07 0.01 74 1016.1
20260510163205 82 28 2.6 5.2 0.00 0.15 0.01 75 1016.0
20260510161704 80 14 2.6 5.2 0.00 0.21 0.01 76 1016.1
20260510160205 80 54 3.5 5.2 0.00 0.27 0.01 75 1016.0
20260510154705 80 112 3.5 4.3 0.00 0.37 0.01 77 1015.9
20260510153204 79 68 3.5 5.2 0.00 0.45 0.01 78 1016.0
20260510151705 77 49 2.6 5.2 0.00 0.48 0.01 81 1016.0
20260510144704 76 45 1.7 4.3 0.00 0.63 0.01 82 1016.3
20260510143204 74 68 1.7 4.3 0.00 0.75 0.01 85 1016.4
20260510141704 71 49 1.7 4.3 0.00 0.78 0.01 88 1016.4
20260510140204 71 112 1.7 2.6 0.00 0.79 0.01 89 1016.1
20260510134704 69 113 1.7 2.6 0.00 0.85 0.01 90 1016.0
20260510133204 68 120 0.9 1.7 0.00 0.86 0.01 92 1016.0
20260510131705 68 115 1.7 4.3 0.00 0.87 0.01 92 1015.9
20260510124704 67 356 1.7 4.3 0.00 0.87 0.01 93 1015.6
20260510123204 66 75 2.6 2.6 0.00 0.88 0.01 93 1015.4
20260510121704 66 60 2.6 2.6 0.00 0.89 0.01 93 1015.0
20260510120204 66 35 1.7 2.6 0.00 0.90 0.01 93 1014.8
20260510113204 66 65 1.7 2.6 0.00 0.90 0.01 93 1014.4
20260510111704 65 45 0.9 1.7 0.00 0.90 0.01 93 1014.2
20260510110204 65 61 0.9 1.7 0.00 0.91 0.01 93 1014.0
20260510104704 66 68 0.0 0.9 0.00 0.91 0.01 93 1013.7
20260510103204 66 53 0.9 1.7 0.00 0.91 0.01 93 1013.7
20260510101704 66 22 1.7 1.7 0.00 0.91 0.01 93 1013.6
20260510100204 66 315 0.0 0.9 0.00 0.91 0.01 93 1013.4
20260510094704 66 338 0.0 0.0 0.01 0.91 0.01 93 1012.9
20260510093204 66 135 0.0 0.9 0.01 0.91 0.01 93 1012.7
20260510091704 66 68 0.0 0.9 0.01 0.91 0.01 93 1012.7
20260510090204 66 68 0.9 1.7 0.01 0.91 0.01 93 1012.7
20260510083204 67 359 1.7 2.6 0.00 0.90 0.00 93 1012.4
20260510081704 67 45 0.9 1.7 0.00 0.90 0.00 93 1012.4
20260510080204 67 44 0.9 0.9 0.00 0.90 0.00 93 1012.1
20260510074704 66 315 0.9 0.9 0.00 0.91 0.00 92 1012.1
20260510071705 67 173 1.7 1.7 0.00 0.91 0.00 92 1012.0
20260510070205 67 277 1.7 1.7 0.00 0.91 0.00 92 1011.8
20260510064705 67 126 0.9 1.7 0.00 0.91 0.00 92 1011.8
20260510063204 67 142 1.7 2.6 0.00 0.91 0.00 92 1012.0
20260510061705 67 131 2.6 2.6 0.00 0.91 0.00 92 1011.9
20260510060205 66 112 1.7 1.7 0.00 0.91 0.00 92 1012.4
20260510054704 66 90 0.9 1.7 0.00 0.91 0.00 92 1012.6
20260510053204 66 45 0.9 1.7 0.00 0.91 0.00 92 1012.7
20260510051704 67 270 0.0 0.9 0.00 0.91 0.00 92 1012.8
20260510044704 68 248 0.9 1.7 0.00 0.92 0.91 92 1012.7
20260510043204 68 277 0.9 2.6 0.00 0.92 0.91 92 1012.6
20260510041704 68 68 0.9 0.9 0.00 0.92 0.91 91 1013.2
20260510040204 68 338 0.0 1.7 0.00 0.92 0.91 91 1013.1
20260510034704 68 202 0.9 1.7 0.00 0.92 0.91 91 1013.2
20260510033204 68 35 0.0 0.9 0.00 0.92 0.91 91 1013.3
20260510031705 68 242 0.0 0.9 0.00 0.92 0.91 91 1013.0
20260510024704 68 270 0.9 1.7 0.00 0.92 0.91 91 1012.6
20260510023204 68 99 0.9 1.7 0.01 0.93 0.91 91 1012.4
20260510021704 68 45 1.7 1.7 0.01 0.93 0.91 91 1012.4
20260510020204 68 1 1.7 1.7 0.02 0.93 0.91 91 1012.6
20260510014704 69 112 0.0 1.7 0.02 0.94 0.91 91 1012.4
20260510013204 69 145 1.7 1.7 0.01 0.95 0.90 91 1012.5
20260510011705 69 202 0.0 1.7 0.01 0.95 0.90 91 1012.7
20260510010205 69 135 1.7 1.7 0.00 0.97 0.89 90 1012.7
20260510004704 69 135 0.9 0.9 0.00 0.97 0.89 90 1012.8
20260510003204 69 229 0.0 1.7 0.01 0.98 0.89 90 1012.5
20260510000204 69 90 0.9 4.3 0.02 0.99 0.89 90 1011.7
20260509234705 69 303 2.6 6.1 0.02 1.00 0.89 90 1010.6
20260509231704 71 135 2.6 4.3 0.01 0.99 0.88 89 1011.3
20260509230204 71 135 1.7 1.7 0.00 0.99 0.87 89 1011.6
20260509224705 71 92 0.9 1.7 0.01 1.00 0.87 89 1011.9
20260509223205 71 79 0.9 2.6 0.01 1.01 0.87 89 1011.9
20260509221705 71 112 0.0 1.7 0.01 1.02 0.87 90 1011.3
20260509220204 71 68 0.9 1.7 0.01 1.03 0.87 90 1011.5
20260509214705 71 270 0.9 2.6 0.00 1.02 0.86 90 1011.6